Location: Curupao
(10.4996°N, 66.6442°W)
Time: 10:01:48
(UTC+00:00)

CZ-3 R/B - Pass Details

Date: 23 May 2024
Orbit: 492 x 10075 km, 28.3° (Epoch: 20 June)

Event Time Altitude Azimuth Distance (km) Brightness Sun altitude
Rises 07:16:56 0° 290° (WNW) 14,694 7.3 -37.2°
Reaches altitude 10° 07:35:22 10° 295° (WNW) 12,325 6.8 -33.4°
Maximum altitude 08:17:55 60° 12° (NNE) 3,262 4.2 -24.5°
Drops below altitude 10° 08:27:52 10° 92° (E) 3,629 5.3 -22.3°
Sets 08:29:51 0° 97° (E) 4,174 5.7 -21.9°
